| time (UTC) | temp C | wind direction | speed KPH | gust KPH | rain 1hr cm | rain 24hr cm | rain mn cm | humidity % | barometer mb |
| 20260503010011 | 10 | 88 | 0.0 | 0.0 | 0.00 | 0.00 | 0.86 | 92 | 1012.2 |
| 20260503005843 | 11 | 88 | 0.0 | 0.0 | 0.00 | 0.86 | 0.86 | 92 | 1012.1 |
| 20260503005345 | 11 | 88 | 0.0 | 0.0 | 0.00 | 0.86 | 0.86 | 92 | 1011.9 |
| 20260503004845 | 11 | 87 | 0.0 | 0.0 | 0.00 | 0.86 | 0.86 | 92 | 1011.8 |
| 20260503004557 | 11 | 88 | 0.0 | 0.0 | 0.00 | 0.00 | 0.86 | 92 | 1011.8 |
| 20260503004411 | 11 | 88 | 0.0 | 0.0 | 0.00 | 0.86 | 0.86 | 92 | 1011.7 |
| 20260503003849 | 11 | 87 | 0.0 | 0.0 | 0.00 | 0.86 | 0.86 | 92 | 1011.6 |
| 20260503003331 | 11 | 88 | 0.0 | 0.0 | 0.00 | 0.86 | 0.86 | 92 | 1011.5 |
| 20260503003033 | 11 | 88 | 0.0 | 0.0 | 0.00 | 0.00 | 0.86 | 92 | 1011.7 |
| 20260503002832 | 11 | 88 | 0.0 | 0.0 | 0.00 | 0.86 | 0.86 | 92 | 1011.5 |
| 20260503002333 | 11 | 88 | 0.0 | 0.0 | 0.00 | 0.86 | 0.86 | 92 | 1011.6 |
| 20260503001835 | 12 | 88 | 0.0 | 0.0 | 0.00 | 0.86 | 0.86 | 92 | 1011.4 |
| 20260503001521 | 11 | 87 | 0.0 | 0.0 | 0.00 | 0.00 | 0.86 | 92 | 1011.4 |
| 20260503001338 | 12 | 88 | 0.0 | 0.0 | 0.00 | 0.86 | 0.86 | 92 | 1011.2 |
| 20260503000907 | 12 | 87 | 0.0 | 0.0 | 0.00 | 0.86 | 0.86 | 92 | 1011.2 |
| 20260503000338 | 12 | 87 | 0.0 | 0.0 | 0.00 | 0.86 | 0.86 | 92 | 1011.1 |
| 20260503000006 | 11 | 88 | 0.0 | 0.0 | 0.00 | 0.00 | 0.86 | 92 | 1011.2 |
| 20260502235839 | 12 | 88 | 0.0 | 0.0 | 0.00 | 0.86 | 0.86 | 92 | 1011.0 |
| 20260502235341 | 12 | 87 | 0.0 | 0.0 | 0.00 | 0.86 | 0.86 | 92 | 1011.0 |
| 20260502234846 | 12 | 87 | 0.0 | 0.0 | 0.00 | 0.86 | 0.86 | 92 | 1011.0 |
| 20260502234613 | 12 | 88 | 0.0 | 0.0 | 0.00 | 0.00 | 0.86 | 92 | 1011.0 |
| 20260502234502 | 12 | 88 | 0.0 | 0.0 | 0.00 | 0.00 | 0.86 | 92 | 1011.0 |
| 20260502234348 | 12 | 88 | 0.0 | 0.0 | 0.00 | 0.86 | 0.86 | 92 | 1011.0 |
| 20260502233847 | 12 | 88 | 0.0 | 0.0 | 0.00 | 0.86 | 0.86 | 92 | 1011.0 |
| 20260502233330 | 12 | 88 | 0.0 | 0.0 | 0.00 | 0.86 | 0.86 | 92 | 1010.9 |
| 20260502233050 | 12 | 88 | 0.0 | 0.0 | 0.00 | 0.00 | 0.86 | 92 | 1011.0 |
| 20260502232857 | 12 | 87 | 0.0 | 0.0 | 0.00 | 0.86 | 0.86 | 92 | 1011.0 |
| 20260502232337 | 12 | 88 | 0.0 | 0.0 | 0.00 | 0.86 | 0.86 | 92 | 1010.9 |
| 20260502231902 | 12 | 88 | 0.0 | 0.0 | 0.00 | 0.86 | 0.86 | 92 | 1010.9 |
| 20260502231505 | 12 | 88 | 0.0 | 0.0 | 0.00 | 0.00 | 0.86 | 92 | 1010.9 |
| 20260502231340 | 12 | 88 | 0.0 | 0.0 | 0.00 | 0.86 | 0.86 | 92 | 1010.8 |
| 20260502230842 | 12 | 88 | 0.0 | 0.0 | 0.00 | 0.86 | 0.86 | 92 | 1010.7 |
| 20260502230335 | 12 | 88 | 0.0 | 0.0 | 0.00 | 0.86 | 0.86 | 92 | 1010.7 |
| 20260502230033 | 12 | 88 | 0.0 | 0.0 | 0.00 | 0.00 | 0.86 | 92 | 1010.8 |
| 20260502225902 | 12 | 87 | 0.0 | 0.0 | 0.00 | 0.86 | 0.86 | 92 | 1010.9 |
| 20260502225408 | 12 | 87 | 0.0 | 0.0 | 0.00 | 0.86 | 0.86 | 92 | 1010.8 |
| 20260502224847 | 12 | 88 | 0.0 | 0.0 | 0.00 | 0.86 | 0.86 | 91 | 1010.9 |
| 20260502224537 | 12 | 87 | 0.0 | 0.0 | 0.00 | 0.00 | 0.86 | 91 | 1010.9 |
| 20260502224346 | 12 | 88 | 0.0 | 0.0 | 0.00 | 0.86 | 0.86 | 91 | 1010.7 |
| 20260502223848 | 12 | 88 | 0.0 | 0.0 | 0.00 | 0.86 | 0.86 | 91 | 1010.7 |
| 20260502223351 | 12 | 88 | 0.0 | 0.0 | 0.00 | 0.86 | 0.86 | 91 | 1010.7 |
| 20260502223011 | 12 | 88 | 0.0 | 0.0 | 0.00 | 0.00 | 0.86 | 91 | 1010.9 |
| 20260502222853 | 12 | 88 | 0.0 | 0.0 | 0.00 | 0.86 | 0.86 | 91 | 1010.8 |
| 20260502222354 | 12 | 87 | 0.0 | 0.0 | 0.00 | 0.86 | 0.86 | 91 | 1010.8 |
| 20260502221833 | 12 | 88 | 0.0 | 0.0 | 0.00 | 0.86 | 0.86 | 91 | 1010.8 |
| 20260502221532 | 12 | 87 | 0.0 | 0.0 | 0.00 | 0.00 | 0.86 | 91 | 1010.8 |
| 20260502221335 | 12 | 88 | 0.0 | 0.0 | 0.00 | 0.86 | 0.86 | 91 | 1010.7 |
| 20260502220903 | 12 | 88 | 0.0 | 0.0 | 0.00 | 0.86 | 0.86 | 91 | 1010.6 |
| 20260502220039 | 12 | 88 | 0.0 | 0.0 | 0.00 | 0.00 | 0.86 | 90 | 1010.6 |
| 20260502215838 | 12 | 88 | 0.0 | 0.0 | 0.00 | 0.86 | 0.86 | 90 | 1010.5 |
| 20260502215339 | 12 | 87 | 0.0 | 0.0 | 0.00 | 0.86 | 0.86 | 91 | 1010.5 |
| 20260502214910 | 12 | 88 | 0.0 | 0.0 | 0.00 | 0.86 | 0.86 | 90 | 1010.6 |
| 20260502214517 | 12 | 88 | 0.0 | 0.0 | 0.00 | 0.00 | 0.86 | 90 | 1010.7 |
| 20260502214331 | 12 | 87 | 0.0 | 0.0 | 0.00 | 0.86 | 0.86 | 90 | 1010.6 |
| 20260502213834 | 12 | 88 | 0.0 | 1.6 | 0.00 | 0.86 | 0.86 | 89 | 1010.6 |
| 20260502213334 | 12 | 88 | 0.0 | 1.6 | 0.00 | 0.86 | 0.86 | 89 | 1010.5 |
| 20260502213026 | 12 | 88 | 0.0 | 0.0 | 0.00 | 0.00 | 0.86 | 90 | 1010.6 |
| 20260502212830 | 13 | 88 | 0.0 | 0.0 | 0.00 | 0.86 | 0.86 | 90 | 1010.4 |
| 20260502212330 | 12 | 88 | 0.0 | 1.6 | 0.00 | 0.86 | 0.86 | 90 | 1010.5 |
| 20260502211831 | 12 | 88 | 0.0 | 3.2 | 0.00 | 0.86 | 0.86 | 90 | 1010.5 |
| 20260502211557 | 12 | 88 | 0.0 | 0.0 | 0.00 | 0.00 | 0.86 | 90 | 1010.6 |
| 20260502211333 | 12 | 88 | 1.6 | 3.2 | 0.00 | 0.86 | 0.86 | 91 | 1010.5 |
| 20260502210901 | 12 | 76 | 0.0 | 3.2 | 0.00 | 0.86 | 0.86 | 92 | 1010.5 |
| 20260502210353 | 12 | 76 | 0.0 | 3.2 | 0.00 | 0.86 | 0.86 | 91 | 1010.5 |
| 20260502210032 | 12 | 76 | 0.0 | 0.0 | 0.00 | 0.00 | 0.86 | 91 | 1010.6 |
| 20260502205833 | 12 | 76 | 0.0 | 3.2 | 0.00 | 0.86 | 0.86 | 91 | 1010.6 |
| 20260502205337 | 12 | 76 | 1.6 | 1.6 | 0.00 | 0.86 | 0.86 | 92 | 1010.6 |
| 20260502204837 | 12 | 76 | 0.0 | 3.2 | 0.00 | 0.86 | 0.86 | 92 | 1010.6 |
| 20260502204524 | 12 | 76 | 0.0 | 0.0 | 0.00 | 0.00 | 0.86 | 92 | 1010.6 |
| 20260502204405 | 12 | 85 | 0.0 | 3.2 | 0.00 | 0.86 | 0.86 | 92 | 1010.6 |
| 20260502203841 | 12 | 85 | 0.0 | 3.2 | 0.00 | 0.86 | 0.86 | 92 | 1010.6 |
| 20260502203343 | 12 | 86 | 1.6 | 3.2 | 0.00 | 0.86 | 0.86 | 92 | 1010.6 |
| 20260502203112 | 12 | 79 | 0.0 | 0.0 | 0.00 | 0.00 | 0.86 | 92 | 1010.7 |
| 20260502202845 | 12 | 67 | 0.0 | 1.6 | 0.00 | 0.86 | 0.86 | 92 | 1010.6 |
| 20260502202346 | 12 | 67 | 0.0 | 3.2 | 0.00 | 0.86 | 0.86 | 93 | 1010.6 |
| 20260502201915 | 12 | 104 | 0.0 | 3.2 | 0.00 | 0.86 | 0.86 | 93 | 1010.6 |
| 20260502201532 | 12 | 69 | 0.0 | 0.0 | 0.00 | 0.00 | 0.86 | 93 | 1010.7 |
| 20260502201355 | 12 | 70 | 0.0 | 3.2 | 0.00 | 0.86 | 0.86 | 93 | 1010.6 |
| 20260502200855 | 12 | 69 | 1.6 | 3.2 | 0.00 | 0.86 | 0.86 | 93 | 1010.4 |
| 20260502200346 | 12 | 318 | 0.0 | 3.2 | 0.00 | 0.86 | 0.86 | 93 | 1010.5 |
| 20260502200021 | 12 | 306 | 0.0 | 0.0 | 0.00 | 0.00 | 0.86 | 93 | 1010.7 |
| 20260502195846 | 12 | 306 | 0.0 | 3.2 | 0.00 | 0.86 | 0.86 | 93 | 1010.6 |
| 20260502195346 | 12 | 246 | 0.0 | 1.6 | 0.00 | 0.91 | 0.86 | 93 | 1010.6 |
| 20260502194846 | 12 | 246 | 0.0 | 3.2 | 0.00 | 0.91 | 0.86 | 93 | 1010.7 |
| 20260502194513 | 12 | 246 | 1.6 | 0.0 | 0.00 | 0.00 | 0.86 | 94 | 1010.8 |
| 20260502194344 | 12 | 247 | 0.0 | 6.4 | 0.00 | 0.91 | 0.86 | 94 | 1010.8 |
| 20260502193844 | 12 | 295 | 1.6 | 6.4 | 0.00 | 0.91 | 0.86 | 94 | 1010.9 |
| 20260502193347 | 12 | 302 | 1.6 | 3.2 | 0.00 | 0.91 | 0.86 | 94 | 1011.0 |
| 20260502193113 | 11 | 263 | 0.0 | 0.0 | 0.00 | 0.00 | 0.86 | 94 | 1011.1 |
| 20260502193003 | 11 | 263 | 0.0 | 0.0 | 0.00 | 0.00 | 0.86 | 94 | 1011.2 |
| 20260502192848 | 12 | 263 | 0.0 | 3.2 | 0.00 | 0.91 | 0.86 | 94 | 1011.1 |
| 20260502192346 | 12 | 263 | 0.0 | 8.0 | 0.00 | 0.91 | 0.86 | 94 | 1011.1 |
| 20260502191846 | 12 | 199 | 0.0 | 8.0 | 0.00 | 0.91 | 0.86 | 94 | 1011.1 |
| 20260502191550 | 12 | 5 | 0.0 | 0.0 | 0.00 | 0.00 | 0.86 | 94 | 1011.2 |
| 20260502191347 | 12 | 5 | 1.6 | 1.6 | 0.00 | 0.91 | 0.86 | 94 | 1011.2 |
| 20260502190845 | 12 | 360 | 0.0 | 1.6 | 0.00 | 0.91 | 0.86 | 94 | 1011.1 |
| 20260502190340 | 12 | 360 | 0.0 | 3.2 | 0.00 | 0.91 | 0.86 | 94 | 1011.1 |
| 20260502190017 | 11 | 5 | 0.0 | 0.0 | 0.00 | 0.00 | 0.86 | 94 | 1011.3 |
| 20260502185842 | 12 | 360 | 0.0 | 3.2 | 0.00 | 0.91 | 0.86 | 94 | 1011.2 |
| 20260502185344 | 12 | 5 | 0.0 | 1.6 | 0.00 | 0.97 | 0.86 | 94 | 1011.2 |
| 20260502184845 | 12 | 5 | 0.0 | 1.6 | 0.03 | 0.97 | 0.86 | 94 | 1011.2 |
| 20260502184510 | 11 | 5 | 0.0 | 0.0 | 0.00 | 0.00 | 0.86 | 94 | 1011.3 |
| 20260502184347 | 12 | 5 | 0.0 | 3.2 | 0.03 | 0.97 | 0.86 | 94 | 1011.2 |
| 20260502183844 | 12 | 360 | 0.0 | 3.2 | 0.03 | 0.97 | 0.86 | 94 | 1011.3 |
| 20260502183345 | 12 | 360 | 1.6 | 3.2 | 0.03 | 0.97 | 0.86 | 94 | 1011.2 |
| 20260502183055 | 11 | 360 | 0.0 | 0.0 | 0.00 | 0.00 | 0.86 | 95 | 1011.4 |
| 20260502182846 | 12 | 360 | 1.6 | 3.2 | 0.03 | 0.97 | 0.86 | 95 | 1011.3 |
| 20260502182348 | 12 | 5 | 0.0 | 1.6 | 0.05 | 0.97 | 0.86 | 94 | 1011.4 |
| 20260502181849 | 11 | 5 | 0.0 | 1.6 | 0.05 | 0.97 | 0.86 | 94 | 1011.4 |
| 20260502181547 | 11 | 5 | 0.0 | 0.0 | 0.00 | 0.00 | 0.86 | 94 | 1011.8 |
| 20260502181351 | 11 | 5 | 0.0 | 1.6 | 0.05 | 0.97 | 0.86 | 94 | 1011.8 |
| 20260502180851 | 11 | 360 | 0.0 | 1.6 | 0.05 | 0.97 | 0.86 | 94 | 1011.7 |
| 20260502180342 | 11 | 360 | 0.0 | 1.6 | 0.05 | 0.97 | 0.86 | 94 | 1011.6 |
| 20260502170353 | 11 | 321 | 0.0 | 1.6 | 0.15 | 0.91 | 0.81 | 94 | 1011.7 |
| 20260502163850 | 11 | 273 | 0.0 | 1.6 | 0.13 | 0.86 | 0.76 | 94 | 1012.1 |
| 20260502163352 | 11 | 273 | 0.0 | 1.6 | 0.10 | 0.84 | 0.74 | 94 | 1012.4 |
| 20260502163024 | 11 | 273 | 0.0 | 0.0 | 0.00 | 0.00 | 0.71 | 94 | 1012.6 |
| 20260502162853 | 11 | 273 | 0.0 | 1.6 | 0.13 | 0.84 | 0.74 | 94 | 1012.6 |
| 20260502162335 | 11 | 253 | 0.0 | 3.2 | 0.10 | 0.81 | 0.71 | 94 | 1012.7 |
| 20260502161904 | 11 | 253 | 0.0 | 3.2 | 0.10 | 0.81 | 0.71 | 94 | 1012.7 |
| 20260502161534 | 11 | 252 | 0.0 | 0.0 | 0.00 | 0.00 | 0.69 | 94 | 1012.6 |
| 20260502161344 | 11 | 286 | 0.0 | 3.2 | 0.08 | 0.79 | 0.69 | 94 | 1012.5 |
| 20260502160843 | 11 | 286 | 0.0 | 3.2 | 0.08 | 0.76 | 0.66 | 94 | 1012.6 |
| 20260502160337 | 11 | 286 | 0.0 | 1.6 | 0.08 | 0.76 | 0.66 | 94 | 1012.5 |
| 20260502152332 | 12 | 286 | 1.6 | 6.4 | 0.08 | 0.71 | 0.61 | 94 | 1012.4 |
| 20260502151832 | 12 | 294 | 1.6 | 3.2 | 0.10 | 0.71 | 0.61 | 94 | 1012.4 |
| 20260502151504 | 11 | 294 | 1.6 | 0.0 | 0.00 | 0.00 | 0.61 | 94 | 1012.4 |
| 20260502151332 | 12 | 294 | 1.6 | 3.2 | 0.13 | 0.71 | 0.61 | 94 | 1012.4 |
| 20260502150832 | 12 | 327 | 0.0 | 3.2 | 0.13 | 0.69 | 0.58 | 94 | 1012.4 |
| 20260502150353 | 12 | 292 | 0.0 | 1.6 | 0.13 | 0.69 | 0.58 | 94 | 1012.5 |
| 20260502130330 | 11 | 284 | 0.0 | 1.6 | 0.15 | 0.51 | 0.36 | 94 | 1011.6 |
| 20260502123341 | 11 | 307 | 0.0 | 4.8 | 0.15 | 0.46 | 0.30 | 94 | 1011.1 |
| 20260502123028 | 11 | 333 | 0.0 | 0.0 | 0.00 | 0.00 | 0.28 | 94 | 1011.1 |
| 20260502122841 | 11 | 261 | 0.0 | 1.6 | 0.15 | 0.43 | 0.28 | 94 | 1011.0 |
| 20260502122341 | 11 | 262 | 0.0 | 1.6 | 0.15 | 0.43 | 0.28 | 94 | 1011.0 |
| 20260502121839 | 11 | 262 | 0.0 | 1.6 | 0.13 | 0.41 | 0.25 | 94 | 1011.0 |
| 20260502121518 | 11 | 262 | 0.0 | 0.0 | 0.00 | 0.00 | 0.25 | 94 | 1011.1 |
| 20260502121338 | 11 | 261 | 0.0 | 1.6 | 0.13 | 0.38 | 0.23 | 94 | 1011.0 |
| 20260502120839 | 11 | 261 | 0.0 | 3.2 | 0.13 | 0.38 | 0.23 | 94 | 1011.0 |
| 20260502120332 | 11 | 261 | 0.0 | 3.2 | 0.10 | 0.36 | 0.20 | 94 | 1011.1 |
| 20260502115918 | 11 | 262 | 0.0 | 1.6 | 0.10 | 0.36 | 0.20 | 94 | 1011.1 |
| 20260502115350 | 11 | 261 | 0.0 | 1.6 | 0.10 | 0.33 | 0.18 | 94 | 1011.1 |
| 20260502114851 | 11 | 262 | 0.0 | 1.6 | 0.10 | 0.33 | 0.18 | 94 | 1011.2 |
| 20260502114510 | 11 | 261 | 0.0 | 0.0 | 0.00 | 0.00 | 0.15 | 94 | 1011.3 |
| 20260502114349 | 11 | 261 | 0.0 | 1.6 | 0.08 | 0.30 | 0.15 | 94 | 1011.3 |
| 20260502113849 | 11 | 261 | 0.0 | 1.6 | 0.08 | 0.30 | 0.15 | 94 | 1011.3 |
| 20260502113330 | 11 | 261 | 0.0 | 0.0 | 0.10 | 0.30 | 0.15 | 94 | 1011.3 |
| 20260502113120 | 11 | 262 | 0.0 | 0.0 | 0.00 | 0.00 | 0.15 | 94 | 1011.3 |
| 20260502112830 | 11 | 261 | 0.0 | 1.6 | 0.08 | 0.28 | 0.13 | 94 | 1011.3 |
| 20260502112356 | 11 | 261 | 0.0 | 1.6 | 0.08 | 0.28 | 0.13 | 94 | 1011.4 |
| 20260502111857 | 11 | 262 | 0.0 | 1.6 | 0.08 | 0.28 | 0.13 | 94 | 1011.4 |
| 20260502111526 | 11 | 261 | 0.0 | 0.0 | 0.00 | 0.00 | 0.13 | 94 | 1011.5 |
| 20260502111336 | 11 | 262 | 1.6 | 1.6 | 0.05 | 0.25 | 0.10 | 94 | 1011.5 |
| 20260502110838 | 11 | 262 | 0.0 | 1.6 | 0.05 | 0.25 | 0.10 | 94 | 1011.5 |
| 20260502110333 | 11 | 262 | 0.0 | 1.6 | 0.05 | 0.25 | 0.10 | 94 | 1011.5 |
| 20260502110054 | 11 | 261 | 0.0 | 0.0 | 0.00 | 0.00 | 0.10 | 93 | 1011.6 |
| 20260502105835 | 11 | 262 | 0.0 | 3.2 | 0.05 | 0.25 | 0.10 | 93 | 1011.5 |
| 20260502105334 | 11 | 262 | 1.6 | 3.2 | 0.03 | 0.23 | 0.08 | 93 | 1011.4 |
| 20260502104857 | 11 | 304 | 0.0 | 3.2 | 0.03 | 0.23 | 0.08 | 94 | 1011.4 |
| 20260502104527 | 11 | 303 | 0.0 | 0.0 | 0.00 | 0.00 | 0.08 | 94 | 1011.5 |
| 20260502104336 | 11 | 315 | 0.0 | 3.2 | 0.03 | 0.23 | 0.08 | 94 | 1011.4 |
| 20260502103836 | 12 | 315 | 0.0 | 3.2 | 0.03 | 0.23 | 0.08 | 94 | 1011.4 |
| 20260502103337 | 12 | 216 | 0.0 | 3.2 | 0.00 | 0.20 | 0.05 | 94 | 1011.4 |
| 20260502103014 | 11 | 219 | 0.0 | 0.0 | 0.00 | 0.00 | 0.05 | 94 | 1011.5 |
| 20260502102840 | 12 | 270 | 0.0 | 4.8 | 0.00 | 0.20 | 0.05 | 94 | 1011.5 |
| 20260502102340 | 11 | 270 | 1.6 | 4.8 | 0.00 | 0.20 | 0.05 | 94 | 1011.5 |
| 20260502101838 | 12 | 355 | 0.0 | 3.2 | 0.03 | 0.20 | 0.05 | 94 | 1011.4 |
| 20260502101610 | 11 | 355 | 0.0 | 0.0 | 0.00 | 0.00 | 0.05 | 94 | 1011.4 |
| 20260502101407 | 11 | 355 | 0.0 | 3.2 | 0.03 | 0.20 | 0.05 | 94 | 1011.3 |
| 20260502100845 | 11 | 205 | 0.0 | 1.6 | 0.05 | 0.20 | 0.05 | 94 | 1011.5 |
| 20260502100338 | 11 | 205 | 1.6 | 1.6 | 0.05 | 0.20 | 0.05 | 94 | 1011.4 |
| 20260502091339 | 11 | 84 | 0.0 | 1.6 | 0.03 | 0.18 | 0.03 | 94 | 1011.2 |
| 20260502090839 | 11 | 83 | 0.0 | 3.2 | 0.00 | 0.15 | 0.00 | 94 | 1011.3 |
| 20260502090333 | 11 | 84 | 0.0 | 3.2 | 0.00 | 0.15 | 0.00 | 94 | 1011.2 |
| 20260502071533 | 11 | 69 | 0.0 | 0.0 | 0.00 | 0.00 | 0.00 | 94 | 1010.4 |
| 20260502071343 | 11 | 69 | 0.0 | 0.0 | 0.00 | 0.15 | 0.00 | 94 | 1010.4 |
| 20260502070844 | 11 | 68 | 0.0 | 0.0 | 0.00 | 0.15 | 0.00 | 94 | 1010.4 |
| 20260502070352 | 11 | 69 | 0.0 | 0.0 | 0.00 | 0.15 | 0.00 | 94 | 1010.4 |
| 20260502070115 | 11 | 68 | 0.0 | 0.0 | 0.00 | 0.00 | 0.00 | 93 | 1010.5 |
| 20260502065854 | 11 | 69 | 0.0 | 0.0 | 0.00 | 0.15 | 0.00 | 93 | 1010.5 |
| 20260502065351 | 11 | 68 | 0.0 | 0.0 | 0.00 | 0.15 | 0.00 | 93 | 1010.6 |
| 20260502064858 | 11 | 69 | 0.0 | 0.0 | 0.00 | 0.15 | 0.00 | 93 | 1010.6 |
| 20260502064508 | 11 | 69 | 0.0 | 0.0 | 0.00 | 0.00 | 0.00 | 93 | 1010.7 |
| 20260502064339 | 11 | 69 | 0.0 | 0.0 | 0.00 | 0.15 | 0.00 | 93 | 1010.7 |
| 20260502063839 | 11 | 68 | 0.0 | 0.0 | 0.00 | 0.15 | 0.00 | 93 | 1010.7 |
| 20260502063341 | 11 | 68 | 0.0 | 0.0 | 0.00 | 0.15 | 0.00 | 93 | 1010.7 |
| 20260502063108 | 11 | 69 | 0.0 | 0.0 | 0.00 | 0.00 | 0.00 | 93 | 1010.7 |
| 20260502062844 | 11 | 68 | 0.0 | 0.0 | 0.00 | 0.15 | 0.00 | 93 | 1010.7 |
| 20260502062344 | 11 | 69 | 0.0 | 0.0 | 0.00 | 0.15 | 0.00 | 93 | 1010.8 |
| 20260502061846 | 11 | 69 | 0.0 | 0.0 | 0.00 | 0.15 | 0.00 | 93 | 1010.8 |
| 20260502061543 | 11 | 69 | 0.0 | 0.0 | 0.00 | 0.00 | 0.00 | 93 | 1010.9 |
| 20260502061346 | 11 | 69 | 0.0 | 0.0 | 0.00 | 0.15 | 0.00 | 93 | 1010.8 |
| 20260502060846 | 11 | 69 | 0.0 | 0.0 | 0.00 | 0.15 | 0.00 | 93 | 1010.9 |
| 20260502060333 | 11 | 69 | 0.0 | 0.0 | 0.00 | 0.15 | 0.00 | 93 | 1010.9 |
| 20260502060029 | 11 | 68 | 0.0 | 0.0 | 0.00 | 0.00 | 0.00 | 93 | 1011.0 |
| 20260502055900 | 11 | 68 | 0.0 | 0.0 | 0.00 | 0.15 | 0.00 | 93 | 1010.9 |
| 20260502055340 | 11 | 68 | 0.0 | 0.0 | 0.00 | 0.15 | 0.00 | 93 | 1010.9 |
| 20260502054849 | -17 | 0.0 | 0.0 | 0.00 | 0.15 | 0.00 | 1011.0 | ||
| 20260502054601 | -17 | 0.0 | 0.0 | 0.00 | 0.00 | 0.00 | 1011.1 | ||
| 20260502054353 | -17 | 0.0 | 0.0 | 0.00 | 0.15 | 0.00 | 1011.1 | ||
| 20260502053836 | -17 | 0.0 | 0.0 | 0.00 | 0.15 | 0.00 | 1011.2 | ||
| 20260502053340 | -17 | 0.0 | 0.0 | 0.00 | 0.15 | 0.00 | 1011.2 | ||
| 20260502053056 | -17 | 0.0 | 0.0 | 0.00 | 0.00 | 0.00 | 1011.2 | ||
| 20260502052835 | -17 | 0.0 | 0.0 | 0.00 | 0.15 | 0.00 | 1011.1 | ||
| 20260502052339 | -17 | 0.0 | 0.0 | 0.00 | 0.15 | 0.00 | 1011.3 | ||
| 20260502051909 | -17 | 0.0 | 0.0 | 0.00 | 0.15 | 0.00 | 1011.3 | ||
| 20260502051502 | -17 | 0.0 | 0.0 | 0.00 | 0.00 | 0.00 | 1011.4 | ||
| 20260502051343 | -17 | 0.0 | 0.0 | 0.00 | 0.15 | 0.00 | 1011.4 | ||
| 20260502050844 | -17 | 0.0 | 0.0 | 0.00 | 0.15 | 0.00 | 1011.6 | ||
| 20260502050337 | -17 | 0.0 | 0.0 | 0.00 | 0.15 | 0.00 | 1011.5 | ||
| 20260502050034 | -17 | 0.0 | 0.0 | 0.00 | 0.00 | 0.00 | 1011.6 | ||
| 20260502045832 | -17 | 0.0 | 0.0 | 0.00 | 0.15 | 0.00 | 1011.7 | ||
| 20260502045346 | -17 | 0.0 | 0.0 | 0.00 | 0.15 | 0.00 | 1011.7 | ||
| 20260502044847 | -17 | 0.0 | 0.0 | 0.00 | 0.15 | 0.00 | 1011.6 | ||
| 20260502044536 | -17 | 0.0 | 0.0 | 0.00 | 0.00 | 0.00 | 1011.7 | ||
| 20260502044352 | -17 | 0.0 | 0.0 | 0.00 | 0.15 | 0.00 | 1011.6 | ||
| 20260502043847 | -17 | 0.0 | 0.0 | 0.00 | 0.15 | 0.00 | 1011.7 | ||
| 20260502043351 | -17 | 0.0 | 0.0 | 0.00 | 0.15 | 0.00 | 1011.6 | ||
| 20260502043110 | -17 | 0.0 | 0.0 | 0.00 | 0.00 | 0.00 | 1011.7 | ||
| 20260502042834 | -17 | 0.0 | 0.0 | 0.00 | 0.15 | 0.00 | 1011.6 | ||
| 20260502042351 | -17 | 0.0 | 0.0 | 0.00 | 0.15 | 0.00 | 1011.7 | ||
| 20260502041854 | -17 | 0.0 | 0.0 | 0.00 | 0.15 | 0.00 | 1011.8 | ||
| 20260502041609 | -17 | 0.0 | 0.0 | 0.00 | 0.00 | 0.00 | 1011.8 | ||
| 20260502041354 | -17 | 0.0 | 0.0 | 0.00 | 0.15 | 0.00 | 1011.7 | ||
| 20260502040835 | -17 | 0.0 | 0.0 | 0.00 | 0.15 | 0.00 | 1011.7 | ||
| 20260502040329 | -17 | 0.0 | 0.0 | 0.00 | 0.15 | 0.00 | 1011.6 | ||
| 20260502040047 | -17 | 0.0 | 0.0 | 0.00 | 0.00 | 0.15 | 1011.6 | ||
| 20260502035829 | -17 | 0.0 | 0.0 | 0.00 | 0.15 | 0.15 | 1011.6 | ||
| 20260502035333 | -17 | 0.0 | 0.0 | 0.00 | 0.15 | 0.15 | 1011.6 | ||
| 20260502034837 | -17 | 0.0 | 0.0 | 0.00 | 0.15 | 0.15 | 1011.7 | ||
| 20260502034544 | -17 | 0.0 | 0.0 | 0.00 | 0.00 | 0.15 | 1011.8 | ||
| 20260502034339 | -17 | 0.0 | 0.0 | 0.00 | 0.15 | 0.15 | 1011.7 | ||
| 20260502033844 | -17 | 0.0 | 0.0 | 0.00 | 0.15 | 0.15 | 1011.7 | ||
| 20260502033358 | -17 | 0.0 | 0.0 | 0.00 | 0.15 | 0.15 | 1011.6 | ||
| 20260502033006 | -17 | 0.0 | 0.0 | 0.00 | 0.00 | 0.15 | 1011.7 | ||
| 20260502032845 | -17 | 0.0 | 0.0 | 0.00 | 0.15 | 0.15 | 1011.8 | ||
| 20260502032330 | -17 | 0.0 | 0.0 | 0.00 | 0.15 | 0.15 | 1011.9 | ||
| 20260502031834 | -17 | 0.0 | 0.0 | 0.00 | 0.15 | 0.15 | 1012.0 | ||
| 20260502031616 | 11 | 69 | 0.0 | 0.0 | 0.00 | 0.00 | 0.15 | 93 | 1012.1 |
| 20260502031336 | 11 | 69 | 0.0 | 0.0 | 0.00 | 0.15 | 0.15 | 93 | 1012.0 |
| 20260502030838 | 11 | 69 | 0.0 | 1.6 | 0.00 | 0.15 | 0.15 | 93 | 1012.2 |
| 20260502030335 | 11 | 69 | 0.0 | 1.6 | 0.00 | 0.15 | 0.15 | 93 | 1012.3 |
| 20260502030050 | 11 | 69 | 0.0 | 0.0 | 0.00 | 0.00 | 0.15 | 93 | 1012.3 |
| 20260502025904 | 11 | 68 | 0.0 | 0.0 | 0.00 | 0.15 | 0.15 | 93 | 1012.3 |
| 20260502025346 | 11 | 69 | 0.0 | 0.0 | 0.00 | 0.15 | 0.15 | 93 | 1012.3 |
| 20260502024847 | 11 | 69 | 0.0 | 0.0 | 0.00 | 0.15 | 0.15 | 93 | 1012.2 |
| 20260502024606 | 11 | 69 | 0.0 | 0.0 | 0.00 | 0.00 | 0.15 | 93 | 1012.3 |
| 20260502024506 | 11 | 69 | 0.0 | 0.0 | 0.00 | 0.00 | 0.15 | 93 | 1012.3 |
| 20260502024348 | 11 | 69 | 0.0 | 0.0 | 0.00 | 0.15 | 0.15 | 93 | 1012.3 |
| 20260502023850 | 11 | 68 | 0.0 | 0.0 | 0.00 | 0.15 | 0.15 | 93 | 1012.3 |
| 20260502023351 | 11 | 69 | 0.0 | 0.0 | 0.00 | 0.15 | 0.15 | 93 | 1012.3 |
| 20260502023044 | 11 | 69 | 0.0 | 0.0 | 0.00 | 0.00 | 0.15 | 93 | 1012.4 |
| 20260502022831 | 11 | 68 | 0.0 | 1.6 | 0.00 | 0.15 | 0.15 | 92 | 1012.4 |
| 20260502022331 | 11 | 68 | 0.0 | 1.6 | 0.00 | 0.15 | 0.15 | 92 | 1012.4 |
| 20260502021833 | 11 | 69 | 0.0 | 1.6 | 0.00 | 0.15 | 0.15 | 92 | 1012.3 |
| 20260502021519 | 11 | 68 | 0.0 | 0.0 | 0.00 | 0.00 | 0.15 | 92 | 1012.4 |
| 20260502021335 | 11 | 69 | 0.0 | 1.6 | 0.00 | 0.15 | 0.15 | 92 | 1012.2 |
| 20260502020858 | 11 | 69 | 0.0 | 0.0 | 0.00 | 0.15 | 0.15 | 92 | 1012.3 |
| 20260502020349 | 11 | 68 | 0.0 | 0.0 | 0.00 | 0.15 | 0.15 | 92 | 1012.4 |
| 20260502020025 | 11 | 68 | 0.0 | 0.0 | 0.00 | 0.00 | 0.15 | 92 | 1012.5 |
| 20260502015849 | 11 | 68 | 0.0 | 1.6 | 0.00 | 0.15 | 0.15 | 92 | 1012.4 |
| 20260502015351 | 11 | 68 | 0.0 | 1.6 | 0.00 | 0.15 | 0.15 | 92 | 1012.3 |
| 20260502014850 | 11 | 69 | 1.6 | 1.6 | 0.00 | 0.15 | 0.15 | 92 | 1012.3 |
| 20260502014515 | 11 | 69 | 0.0 | 0.0 | 0.00 | 0.00 | 0.15 | 92 | 1012.4 |
| 20260502014331 | 11 | 69 | 0.0 | 1.6 | 0.00 | 0.15 | 0.15 | 92 | 1012.3 |
| 20260502013832 | 12 | 68 | 0.0 | 1.6 | 0.00 | 0.15 | 0.15 | 92 | 1012.1 |
| 20260502013333 | 12 | 68 | 0.0 | 0.0 | 0.00 | 0.15 | 0.15 | 92 | 1012.2 |
| 20260502013006 | 11 | 69 | 0.0 | 0.0 | 0.00 | 0.00 | 0.15 | 92 | 1012.2 |
| 20260502012901 | 12 | 69 | 0.0 | 1.6 | 0.00 | 0.15 | 0.15 | 92 | 1012.3 |
| 20260502012341 | 12 | 68 | 0.0 | 1.6 | 0.00 | 0.15 | 0.15 | 92 | 1012.2 |
| 20260502011845 | 12 | 69 | 0.0 | 1.6 | 0.00 | 0.15 | 0.15 | 92 | 1012.3 |
| 20260502011600 | 11 | 69 | 0.0 | 0.0 | 0.00 | 0.00 | 0.15 | 92 | 1012.2 |
| 20260502011410 | 12 | 69 | 0.0 | 1.6 | 0.00 | 0.15 | 0.15 | 92 | 1012.1 |
| 20260502010829 | 12 | 69 | 0.0 | 0.0 | 0.00 | 0.15 | 0.15 | 92 | 1011.9 |
| 20260502010342 | 12 | 69 | 0.0 | 0.0 | 0.00 | 0.15 | 0.15 | 92 | 1011.7 |